カタログに戻る

STARLINK-11171

運用中通信VLEO
NORAD 60069·PAYLOAD·🇺🇸 United States

打ち上げ Jun 19, 2024 から Vandenberg Space Force Base

Loading…

次のパス (今後24時間)

TLE

最新Source: CelesTrak SupGP

元期: Sep 15, 2026, 02:36 UTC

1 60069C 24113L   26258.10881944  .00041841  00000+0  34464-3 0  2589
2 60069  53.1565 337.7406 0001183  78.9973  62.0545 15.69689640    11

AllMySatでSTARLINK-11171をリアルタイム追跡

Download on the App Store